Location: Peebles
(55.6412°N, 3.1714°W)
Time: 23:56:11
(UTC+00:00)

ERBS - Visible Passes

Search period start: 27 January 2022 00:00
Search period end: 06 February 2022 00:00
Orbit: 386 x 405 km, 57.0° (Epoch: 27 January)

Date Brightness Start Highest point End Pass type
(mag) Time Alt. Az. Time Alt. Az. Time Alt. Az.
30 Jan 4.6 18:24:05 10° SSE 18:24:22 10° SE 18:24:22 10° SE visible
31 Jan 3.8 19:02:50 10° SSW 19:04:35 23° S 19:04:35 23° S visible
01 Feb 4.0 18:09:03 10° S 18:11:14 17° SE 18:12:12 15° ESE visible
01 Feb 4.4 19:43:26 10° WSW 19:44:42 22° SW 19:44:42 22° SW visible
02 Feb 2.6 18:49:00 10° SW 18:52:02 42° SSE 18:52:12 42° SE visible
02 Feb 5.6 20:24:36 10° W 20:24:42 11° W 20:24:42 11° W visible
03 Feb 3.5 17:54:48 10° SSW 17:57:32 26° SE 17:59:38 14° E visible
03 Feb 3.3 19:29:53 10° WSW 19:32:07 42° WSW 19:32:07 42° WSW visible
04 Feb 2.2 18:35:16 10° WSW 18:38:25 63° SSE 18:39:29 36° E visible
04 Feb 5.1 20:11:05 10° W 20:11:58 17° W 20:11:58 17° W visible
05 Feb 2.9 17:40:47 10° SW 17:43:47 40° SSE 17:46:46 10° ENE visible
05 Feb 2.3 19:16:18 10° W 19:19:15 70° NW 19:19:15 70° NW visible
